This is the latest recevied weather packets stored in our database for station/object K5KVN. If no packets are shown the sender has not sent any weather packets the latest 10 day(s).
| Time | Temp. | Humidity | Pressure | Rain* | Wind** | Luminosity | Snow |
|---|---|---|---|---|---|---|---|
| 1788023432 | 33.89° C | 44% | 1020.6 hPa | 0 mm | - | - | - |
| 1788022833 | 33.33° C | 47% | 1020.7 hPa | 0 mm | - | - | - |
| 1788022231 | 32.78° C | 46% | 1020.9 hPa | 0 mm | - | - | - |
| 1788021690 | 32.78° C | 48% | 1020.9 hPa | 0 mm | - | - | - |
| 1788021031 | 32.22° C | 47% | 1021 hPa | 0 mm | - | - | - |
| 1788020431 | 32.22° C | 48% | 1020.9 hPa | 0 mm | - | - | - |
| 1788019828 | 32.22° C | 49% | 1020.9 hPa | 0 mm | - | - | - |
| 1788019288 | 31.67° C | 50% | 1020.9 hPa | 0 mm | - | - | - |
| 1788018629 | 31.11° C | 52% | 1021.1 hPa | 0 mm | - | - | - |
| 1788018027 | 30.56° C | 53% | 1021 hPa | 0 mm | - | - | - |
| 1788017427 | 30° C | 55% | 1021 hPa | 0 mm | - | - | - |
| 1788016826 | 29.44° C | 55% | 1021.1 hPa | 0 mm | - | - | - |
| 1788016222 | 29.44° C | 58% | 1021 hPa | 0 mm | - | - | - |
| 1788015624 | 28.33° C | 59% | 1021.2 hPa | 0 mm | - | - | - |
| 1788015083 | 27.78° C | 61% | 1021.2 hPa | 0 mm | - | - | - |
| 1788014482 | 26.67° C | 65% | 1021.1 hPa | 0 mm | - | - | - |
| 1788013822 | 26.11° C | 67% | 1021.1 hPa | 0 mm | - | - | - |
| 1788013222 | 25.56° C | 68% | 1021.1 hPa | 0 mm | - | - | - |
| 1788012623 | 25.56° C | 69% | 1021.1 hPa | 0 mm | - | - | - |
| 1788012021 | 25° C | 71% | 1021 hPa | 0 mm | - | - | - |
| 1788011420 | 24.44° C | 72% | 1021 hPa | 0 mm | - | - | - |
| 1788010879 | 23.89° C | 75% | 1021 hPa | 0 mm | - | - | - |
| 1788010218 | 22.78° C | 78% | 1021 hPa | 0 mm | - | - | - |
| 1788009679 | 21.67° C | 82% | 1021.1 hPa | 0 mm | - | - | - |
| 1788009078 | 20.56° C | 87% | 1021 hPa | 0 mm | - | - | - |
* Rain latest hour (hover to see other rain measurements)
** Current wind speed in m/s (hover to see current wind gust speed)